Overview Statistics Trail Chart Weather Telemetry Raw packets
 

This is the latest recevied weather packets stored in our database for station/object KI5NXU. If no packets are shown the sender has not sent any weather packets the latest 10 day(s).

<< 94 95 96 97 98 99 100 >>
Time Temp. Humidity Pressure Rain* Wind** Luminosity Snow
1787687307 40° C 27% 1013.8 hPa 0 mm - 664 W/m² -
1787687003 38.89° C 28% 1013.9 hPa 0 mm - 671 W/m² -
1787686699 39.44° C 27% 1013.9 hPa 0 mm - 687 W/m² -
1787686399 40° C 29% 1013.7 hPa 0 mm - 699 W/m² -
1787686096 39.44° C 27% 1014.2 hPa 0 mm - 660 W/m² -
1787685790 39.44° C 29% 1014.2 hPa 0 mm - 671 W/m² -
1787685485 39.44° C 30% 1013.9 hPa 0 mm - 547 W/m² -
1787685185 39.44° C 30% 1014.1 hPa 0 mm - 619 W/m² -
1787684880 39.44° C 32% 1014 hPa 0 mm - 569 W/m² -
1787684581 38.89° C 33% 1014 hPa 0 mm - 553 W/m² -
1787684275 38.89° C 34% 1014.1 hPa 0 mm - 597 W/m² -
1787683971 38.89° C 34% 1014.2 hPa 0 mm - 583 W/m² -
1787683669 37.78° C 37% 1014.5 hPa 0 mm - 618 W/m² -
1787683365 37.22° C 37% 1014.4 hPa 0 mm - 639 W/m² -
1787683062 37.22° C 37% 1014.6 hPa 0 mm - 652 W/m² -
1787682758 37.22° C 39% 1014.7 hPa 0 mm - 632 W/m² -
1787682453 37.22° C 38% 1014.7 hPa 0 mm - 656 W/m² -
1787682149 37.78° C 38% 1014.7 hPa 0 mm - 685 W/m² -
1787681845 36.11° C 40% 1015 hPa 0 mm - 644 W/m² -
1787681544 35.56° C 41% 1015.2 hPa 0 mm - 600 W/m² -
1787681239 35.56° C 42% 1015.1 hPa 0 mm - 568 W/m² -
1787680935 35.56° C 42% 1015 hPa 0 mm - 544 W/m² -
1787680635 35° C 43% 1015.1 hPa 0 mm - 488 W/m² -
1787680334 35.56° C 43% 1015.3 hPa 0 mm - 540 W/m² -
1787680033 34.44° C 44% 1015.5 hPa 0 mm - 570 W/m² -

* Rain latest hour (hover to see other rain measurements)
** Current wind speed in m/s (hover to see current wind gust speed)